Regional Weather Roundup
Issued by NWS

Home | Current Version | Previous Version | Graphics & Text | Print | Product List | Glossary On
Versions: 1 2 3 4 5 6 7 8 9 10 11 12 13 14 15 16 17 18 19 20 21 22 23 24 25 26 27 28 29 30 31 32 33 34 35 36 37 38 39 40 41 42 43 44 45 46 47 48 49 50
000
ASUS43 KOAX 222310
RWRNE

WEATHER ROUNDUP FOR NEBRASKA
NATIONAL WEATHER SERVICE OMAHA NE
600 PM CDT SAT APR 22 2017

NOTES: SATELLITE DATA IS BEING USED TO AUGMENT CLOUD COVER ABOVE
       12000 FEET.
       "FAIR" INDICATES FEW OR NO CLOUDS BELOW 12,000 FEET WITH NO
       SIGNIFICANT WEATHER AND/OR OBSTRUCTIONS TO VISIBILITY.

  * THESE STATIONS DO NOT REPORT WEATHER SUCH AS RAIN...SNOW OR FOG.

NEZ001>004-019>022-054>056-230000-
NEBRASKA PANHANDLE

CITY           SKY/WX    TMP DP  RH WIND       PRES   REMARKS
SCOTTSBLUFF    MOSUNNY   61  28  28 S15       30.18F
ALLIANCE       SUNNY     61  28  28 S13       30.18F
CHADRON        SUNNY     64  30  27 SW9       30.15F
KIMBALL        MOSUNNY   58  34  40 SW10      30.23S
SIDNEY         SUNNY     56  32  40 VRB5      30.23F
$$

NEZ057>060-069>072-079>082-230000-
SOUTHWEST NEBRASKA

CITY           SKY/WX    TMP DP  RH WIND       PRES   REMARKS
NORTH PLATTE   SUNNY     63  29  27 E3        30.21F
IMPERIAL       SUNNY     60  27  28 CALM      30.23F
LEXINGTON      SUNNY     62  31  30 NE7       30.22S
MCCOOK         SUNNY     64  30  27 E8        30.22S
OGALLALA       SUNNY     64  24  22 CALM      30.21F
$$

NEZ005>010-023>029-035>040-094-230000-
NORTH CENTRAL NEBRASKA

CITY           SKY/WX    TMP DP  RH WIND       PRES   REMARKS
VALENTINE      SUNNY     68  21  16 S10       30.18S
AINSWORTH      SUNNY     63  32  30 S9        30.20S
BROKEN BOW     SUNNY     63  31  30 SE5       30.21F
O`NEILL        SUNNY     64  29  26 S6        30.21S
ORD            SUNNY     64  27  24 VRB5      30.20F
THEDFORD       SUNNY     65  28  24 S6G16     30.20F
$$

NEZ041-046>049-061>064-073>077-083>087-230000-
SOUTH CENTRAL NEBRASKA

CITY           SKY/WX    TMP DP  RH WIND       PRES   REMARKS
GRAND ISLAND   SUNNY     65  30  27 NW5       30.22R
AURORA         SUNNY     65  28  24 N8        30.21R
HASTINGS       SUNNY     64  27  24 E9        30.21S
HEBRON         SUNNY     65  27  24 NE7G16    30.19S
HOLDREGE       SUNNY     61  26  25 SE3       30.22S
KEARNEY *      SUNNY     64  27  24 E9        30.22S
YORK           SUNNY     63  30  29 N7        30.20S
$$

NEZ011>018-030>034-042>045-230000-
NORTHEAST NEBRASKA

CITY           SKY/WX    TMP DP  RH WIND       PRES   REMARKS
NORFOLK        SUNNY     65  31  28 NW7       30.19S
ALBION         SUNNY     65  30  27 CALM      30.21S
BLAIR          SUNNY     66  33  29 NE9       30.19R
FREMONT        SUNNY     65  31  27 NE7       30.20S
TEKAMAH        SUNNY     66  31  27 N9        30.19S
WAYNE          SUNNY     65  32  29 CALM      30.19F
$$

NEZ050>053-065>068-078-088>093-230000-
SOUTHEAST NEBRASKA

CITY           SKY/WX    TMP DP  RH WIND       PRES   REMARKS
LINCOLN        SUNNY     66  32  28 NE13      30.20S
OMAHA EPPLEY   MOSUNNY   68  28  22 N8        30.18R
BEATRICE       SUNNY     65  33  30 NE12      30.18S
FALLS CITY     SUNNY     64  29  26 N14G20    30.15S
NEBRASKA CITY  SUNNY     65  18  16 NE13      30.17S
PLATTSMOUTH    SUNNY     67  18  15 NE10      30.18R
$$

NEZ044-045-051>053-067-230000-
OMAHA AREA

CITY           SKY/WX    TMP DP  RH WIND       PRES   REMARKS
OMAHA EPPLEY   MOSUNNY   68  28  22 N8        30.18R
BLAIR          SUNNY     66  33  29 NE9       30.19R
FREMONT        SUNNY     65  31  27 NE7       30.20S
MILLARD        SUNNY     67  32  26 NE5       30.18S
OFFUTT AFB     SUNNY     67  31  27 N8        30.17F
PLATTSMOUTH    SUNNY     67  18  15 NE10      30.18R
WAHOO          FAIR      65  30  26 N9        30.19S
$$



USA.gov is the U.S. government's official web portal to all federal, state and local government web resources and services.